"read_dt","SO2 (ppb)","flags","PMT voltage (V)","lamp voltage (V)","lamp intensity (Hz)","internal temp (C)","react chamber temp (C)","sample flow (l/min)","pres (mmHg)","SO2 bkg (ppb)","SO2 coefficient"
2013-10-16 00:00:00,1913E-4,5C000000,-0724,0964,10963,027.9,045.3,0.390,730.2,01.19,0.508
2013-10-16 00:01:00,1150E-4,5C000000,-0724,0962,10859,027.9,045.3,0.389,730.2,01.19,0.508
2013-10-16 00:02:00,1646E-4,5C000000,-0724,0962,10932,027.9,045.3,0.390,730.3,01.19,0.508
2013-10-16 00:03:00,2104E-4,5C000000,-0724,0962,11005,027.9,045.3,0.389,730.3,01.19,0.508
2013-10-16 00:04:00,1321E-4,5C000000,-0724,0963,10954,027.9,045.3,0.389,730.2,01.19,0.508
2013-10-16 00:05:00,1136E-4,5C000000,-0724,0962,10879,027.9,045.4,0.390,730.2,01.19,0.508
2013-10-16 00:06:00,2261E-4,5C000000,-0724,0963,10988,027.9,045.3,0.389,730.2,01.19,0.508
2013-10-16 00:07:00,8989E-5,5C000000,-0724,0963,10763,027.9,045.3,0.389,730.2,01.19,0.508
2013-10-16 00:08:00,9004E-5,5C000000,-0724,0962,10861,027.9,045.3,0.389,730.2,01.19,0.508
2013-10-16 00:09:00,1664E-4,5C000000,-0724,0962,10941,028.0,045.3,0.389,730.2,01.19,0.508
2013-10-16 00:10:00,7863E-5,5C000000,-0724,0961,10900,028.0,045.3,0.390,730.2,01.19,0.508
2013-10-16 00:11:00,1274E-4,5C000000,-0724,0962,10783,028.0,045.4,0.389,730.2,01.19,0.508
2013-10-16 00:12:00,8271E-5,5C000000,-0724,0962,10859,028.0,045.4,0.389,730.2,01.19,0.508
2013-10-16 00:13:00,7383E-5,5C000000,-0724,0963,10872,028.0,045.4,0.389,730.2,01.19,0.508
2013-10-16 00:14:00,4729E-5,5C000000,-0724,0963,10855,028.0,045.4,0.389,730.2,01.19,0.508
2013-10-16 00:15:00,1018E-4,5C000000,-0724,0963,10770,028.0,045.4,0.389,730.1,01.19,0.508
2013-10-16 00:16:00,2308E-4,5C000000,-0724,0962,10942,028.0,045.3,0.389,730.2,01.19,0.508
2013-10-16 00:17:00,9196E-5,5C000000,-0724,0963,11030,028.0,045.4,0.389,730.2,01.19,0.508
2013-10-16 00:18:00,8698E-5,5C000000,-0724,0963,10756,028.0,045.4,0.389,730.2,01.19,0.508
2013-10-16 00:19:00,2213E-4,5C000000,-0724,0961,10939,028.0,045.4,0.389,730.1,01.19,0.508
2013-10-16 00:20:00,6712E-5,5C000000,-0724,0962,11026,028.1,045.3,0.389,730.1,01.19,0.508
2013-10-16 00:21:00,7801E-5,5C000000,-0724,0963,10947,028.1,045.3,0.389,730.1,01.19,0.508
2013-10-16 00:22:00,8667E-5,5C000000,-0724,0962,10964,028.1,045.4,0.389,730.1,01.19,0.508
2013-10-16 00:23:00,1990E-4,5C000000,-0724,0962,10930,028.1,045.4,0.389,730.0,01.19,0.508
2013-10-16 00:24:00,1822E-4,5C000000,-0724,0962,10969,028.1,045.4,0.389,730.1,01.19,0.508
2013-10-16 00:25:00,3829E-5,5C000000,-0724,0962,10890,028.1,045.4,0.389,730.0,01.19,0.508
2013-10-16 00:26:00,1103E-4,5C000000,-0724,0963,11019,028.1,045.4,0.389,730.0,01.19,0.508
2013-10-16 00:27:00,1459E-4,5C000000,-0724,0962,10514,028.1,045.4,0.389,730.0,01.19,0.508
2013-10-16 00:28:00,6561E-5,5C000000,-0724,0963,10951,028.1,045.4,0.389,730.0,01.19,0.508
2013-10-16 00:29:00,1024E-4,5C000000,-0724,0963,10870,028.2,045.4,0.389,729.9,01.19,0.508
2013-10-16 00:30:00,9775E-5,5C000000,-0724,0962,10988,028.2,045.4,0.389,729.9,01.19,0.508
2013-10-16 00:31:00,1139E-4,5C000000,-0724,0962,10939,028.2,045.4,0.389,729.8,01.19,0.508
2013-10-16 00:32:00,1334E-4,5C000000,-0724,0963,10907,028.2,045.3,0.389,729.8,01.19,0.508
2013-10-16 00:33:00,1242E-4,5C000000,-0724,0962,10886,028.2,045.4,0.388,729.8,01.19,0.508
2013-10-16 00:34:00,1373E-4,5C000000,-0724,0962,10944,028.2,045.4,0.389,729.9,01.19,0.508
2013-10-16 00:35:00,1478E-4,5C000000,-0724,0963,11008,028.2,045.3,0.388,729.8,01.19,0.508
2013-10-16 00:36:00,1152E-4,5C000000,-0724,0963,10984,028.2,045.3,0.389,729.9,01.19,0.508
2013-10-16 00:37:00,1127E-4,5C000000,-0724,0963,10665,028.2,045.3,0.389,729.8,01.19,0.508
2013-10-16 00:38:00,1133E-4,5C000000,-0724,0962,10868,028.2,045.4,0.388,729.8,01.19,0.508
2013-10-16 00:39:00,1172E-4,5C000000,-0724,0962,10913,028.3,045.4,0.389,729.8,01.19,0.508
2013-10-16 00:40:00,1874E-4,5C000000,-0724,0962,10748,028.3,045.4,0.388,729.7,01.19,0.508
2013-10-16 00:41:00,1634E-4,5C000000,-0724,0963,10799,028.3,045.4,0.389,729.8,01.19,0.508
2013-10-16 00:42:00,1850E-4,5C000000,-0724,0963,10933,028.3,045.4,0.389,729.7,01.19,0.508
2013-10-16 00:43:00,2007E-4,5C000000,-0724,0963,10824,028.3,045.4,0.388,729.7,01.19,0.508
2013-10-16 00:44:00,1605E-4,5C000000,-0724,0963,10928,028.3,045.4,0.389,729.7,01.19,0.508
2013-10-16 00:45:00,1270E-4,5C000000,-0724,0963,10890,028.3,045.4,0.388,729.6,01.19,0.508
2013-10-16 00:46:00,1223E-4,5C000000,-0724,0962,10926,028.3,045.4,0.389,729.7,01.19,0.508
2013-10-16 00:47:00,1038E-4,5C000000,-0724,0963,10806,028.3,045.4,0.388,729.5,01.19,0.508
2013-10-16 00:48:00,1107E-4,5C000000,-0724,0963,11077,028.3,045.4,0.388,729.5,01.19,0.508
2013-10-16 00:49:00,1359E-4,5C000000,-0724,0963,10908,028.4,045.4,0.389,729.5,01.19,0.508
2013-10-16 00:50:00,1496E-4,5C000000,-0724,0963,10914,028.4,045.4,0.388,729.5,01.19,0.508
2013-10-16 00:51:00,1226E-4,5C000000,-0724,0963,10965,028.4,045.4,0.388,729.5,01.19,0.508
2013-10-16 00:52:00,2004E-4,5C000000,-0724,0962,10928,028.4,045.4,0.388,729.5,01.19,0.508
2013-10-16 00:53:00,1958E-4,5C000000,-0724,0963,10897,028.4,045.4,0.388,729.5,01.19,0.508
2013-10-16 00:54:00,9877E-5,5C000000,-0724,0963,10841,028.4,045.4,0.389,729.4,01.19,0.508
2013-10-16 00:55:00,5849E-5,5C000000,-0724,0963,10860,028.4,045.4,0.388,729.4,01.19,0.508
2013-10-16 00:56:00,6619E-5,5C000000,-0724,0963,10903,028.4,045.4,0.388,729.3,01.19,0.508
2013-10-16 00:57:00,1807E-4,5C000000,-0724,0963,10732,028.4,045.4,0.388,729.4,01.19,0.508
2013-10-16 00:58:00,2367E-4,5C000000,-0724,0963,10936,028.4,045.4,0.388,729.3,01.19,0.508
2013-10-16 00:59:00,1338E-4,5C000000,-0724,0964,10904,028.4,045.4,0.388,729.2,01.19,0.508
2013-10-16 01:00:00,1388E-4,5C000000,-0724,0964,10965,028.5,045.4,0.388,729.2,01.19,0.508
2013-10-16 01:01:00,6523E-5,5C000000,-0724,0963,10671,028.5,045.4,0.388,729.2,01.19,0.508
2013-10-16 01:02:00,1441E-4,5C000000,-0724,0963,10963,028.5,045.4,0.388,729.2,01.19,0.508
2013-10-16 01:03:00,2031E-4,5C000000,-0724,0964,11032,028.5,045.4,0.388,729.1,01.19,0.508
2013-10-16 01:04:00,7316E-5,5C000000,-0724,0963,10505,028.5,045.4,0.387,729.0,01.19,0.508
2013-10-16 01:05:00,1288E-4,5C000000,-0724,0963,10906,028.5,045.4,0.388,729.0,01.19,0.508
2013-10-16 01:06:00,1569E-4,5C000000,-0724,0964,11013,028.5,045.4,0.388,729.0,01.19,0.508
2013-10-16 01:07:00,1032E-4,5C000000,-0724,0963,10983,028.5,045.4,0.388,729.0,01.19,0.508
2013-10-16 01:08:00,7835E-5,5C000000,-0724,0962,10898,028.5,045.4,0.388,729.0,01.19,0.508
2013-10-16 01:09:00,1146E-4,5C000000,-0724,0963,10895,028.5,045.4,0.388,729.0,01.19,0.508
2013-10-16 01:10:00,2032E-4,5C000000,-0724,0964,10960,028.5,045.4,0.388,729.0,01.19,0.508
2013-10-16 01:11:00,1262E-4,5C000000,-0724,0963,10935,028.5,045.4,0.387,729.0,01.19,0.508
2013-10-16 01:12:00,1137E-4,5C000000,-0724,0964,10921,028.5,045.4,0.388,729.0,01.19,0.508
2013-10-16 01:13:00,9480E-5,5C000000,-0724,0963,10876,028.5,045.4,0.387,729.0,01.19,0.508
2013-10-16 01:14:00,2129E-4,5C000000,-0724,0962,10865,028.5,045.4,0.388,729.0,01.19,0.508
2013-10-16 01:15:00,1327E-4,5C000000,-0724,0963,10925,028.5,045.4,0.388,729.0,01.19,0.508
2013-10-16 01:16:00,8071E-5,5C000000,-0724,0964,10858,028.5,045.4,0.387,729.0,01.19,0.508
2013-10-16 01:17:00,-8850E-7,5C000000,-0724,0963,10806,028.5,045.4,0.388,729.0,01.19,0.508
2013-10-16 01:18:00,6943E-5,5C000000,-0724,0964,10679,028.5,045.4,0.387,729.0,01.19,0.508
2013-10-16 01:19:00,7733E-5,5C000000,-0724,0964,10941,028.5,045.4,0.388,729.0,01.19,0.508
2013-10-16 01:20:00,9322E-5,5C000000,-0724,0963,10809,028.5,045.4,0.388,729.1,01.19,0.508
2013-10-16 01:21:00,1023E-4,5C000000,-0724,0963,10871,028.5,045.4,0.387,729.0,01.19,0.508
2013-10-16 01:22:00,2001E-4,5C000000,-0724,0963,10964,028.5,045.4,0.388,729.1,01.19,0.508
2013-10-16 01:23:00,9647E-5,5C000000,-0724,0964,10781,028.5,045.4,0.387,729.1,01.19,0.508
2013-10-16 01:24:00,1304E-4,5C000000,-0724,0963,10810,028.5,045.4,0.388,729.1,01.19,0.508
2013-10-16 01:25:00,1525E-4,5C000000,-0724,0962,10844,028.5,045.4,0.388,729.1,01.19,0.508
2013-10-16 01:26:00,4013E-5,5C000000,-0724,0964,10931,028.5,045.4,0.387,729.0,01.19,0.508
2013-10-16 01:27:00,8056E-5,5C000000,-0724,0962,10916,028.5,045.4,0.387,729.1,01.19,0.508
2013-10-16 01:28:00,1285E-4,5C000000,-0724,0963,10821,028.5,045.4,0.388,729.1,01.19,0.508
2013-10-16 01:29:00,8562E-5,5C000000,-0724,0964,10816,028.5,045.3,0.387,729.1,01.19,0.508
2013-10-16 01:30:00,6796E-5,5C000000,-0724,0965,10810,028.5,045.4,0.388,729.0,01.19,0.508
2013-10-16 01:31:00,1181E-4,5C000000,-0724,0964,10985,028.5,045.4,0.388,729.1,01.19,0.508
2013-10-16 01:32:00,8494E-5,5C000000,-0724,0963,11004,028.5,045.4,0.387,729.2,01.19,0.508
2013-10-16 01:33:00,4763E-5,5C000000,-0724,0963,10979,028.5,045.4,0.388,729.2,01.19,0.508
2013-10-16 01:34:00,6016E-5,5C000000,-0724,0964,10769,028.5,045.4,0.388,729.2,01.19,0.508
2013-10-16 01:35:00,8685E-5,5C000000,-0724,0962,10843,028.5,045.4,0.388,729.0,01.19,0.508
2013-10-16 01:36:00,1663E-4,5C000000,-0724,0964,10860,028.5,045.4,0.388,729.3,01.19,0.508
2013-10-16 01:37:00,1308E-4,5C000000,-0724,0963,10922,028.5,045.4,0.388,729.3,01.19,0.508
2013-10-16 01:38:00,1430E-4,5C000000,-0724,0963,10823,028.5,045.4,0.388,729.3,01.19,0.508
2013-10-16 01:39:00,4392E-5,5C000000,-0724,0963,10920,028.5,045.3,0.388,729.3,01.19,0.508
2013-10-16 01:40:00,1353E-4,5C000000,-0724,0963,10912,028.5,045.4,0.387,729.1,01.19,0.508
2013-10-16 01:41:00,5328E-5,5C000000,-0724,0963,10906,028.5,045.4,0.388,729.2,01.19,0.508
2013-10-16 01:42:00,1045E-4,5C000000,-0724,0963,10926,028.5,045.4,0.388,729.3,01.19,0.508
2013-10-16 01:43:00,1067E-4,5C000000,-0724,0963,10968,028.5,045.4,0.388,729.3,01.19,0.508
2013-10-16 01:44:00,9038E-5,5C000000,-0724,0964,10926,028.5,045.4,0.388,729.3,01.19,0.508
2013-10-16 01:45:00,1124E-4,5C000000,-0724,0963,10798,028.4,045.4,0.388,729.2,01.19,0.508
2013-10-16 01:46:00,1311E-4,5C000000,-0724,0964,10746,028.4,045.4,0.388,729.2,01.19,0.508
2013-10-16 01:47:00,1236E-4,5C000000,-0724,0963,10859,028.4,045.4,0.388,729.3,01.19,0.508
2013-10-16 01:48:00,1209E-4,5C000000,-0724,0962,10930,028.4,045.4,0.388,729.1,01.19,0.508
2013-10-16 01:49:00,1256E-4,5C000000,-0724,0963,10954,028.4,045.4,0.388,729.1,01.19,0.508
2013-10-16 01:50:00,1102E-4,5C000000,-0724,0963,10828,028.4,045.4,0.388,729.2,01.19,0.508
2013-10-16 01:51:00,1649E-4,5C000000,-0724,0963,10837,028.4,045.3,0.387,729.1,01.19,0.508
2013-10-16 01:52:00,8102E-5,5C000000,-0724,0964,10911,028.4,045.4,0.388,729.0,01.19,0.508
2013-10-16 01:53:00,1248E-4,5C000000,-0724,0963,10924,028.4,045.4,0.388,729.3,01.19,0.508
2013-10-16 01:54:00,7632E-5,5C000000,-0724,0963,10946,028.4,045.4,0.388,729.0,01.19,0.508
2013-10-16 01:55:00,1210E-4,5C000000,-0724,0964,10975,028.4,045.4,0.388,729.2,01.19,0.508
2013-10-16 01:56:00,1402E-4,5C000000,-0724,0962,10895,028.4,045.4,0.388,729.2,01.19,0.508
2013-10-16 01:57:00,6824E-5,5C000000,-0724,0963,11042,028.4,045.4,0.388,729.2,01.19,0.508
2013-10-16 01:58:00,5512E-5,5C000000,-0724,0963,10870,028.4,045.4,0.388,729.3,01.19,0.508
2013-10-16 01:59:00,1517E-4,5C000000,-0724,0963,10880,028.4,045.4,0.387,729.2,01.19,0.508
2013-10-16 02:00:00,8379E-5,5C000000,-0724,0962,10930,028.4,045.4,0.388,729.1,01.19,0.508
2013-10-16 02:01:00,1455E-4,5C000000,-0724,0964,10883,028.4,045.4,0.388,729.2,01.19,0.508
2013-10-16 02:02:00,7895E-5,5C000000,-0724,0965,10967,028.4,045.4,0.388,729.1,01.19,0.508
2013-10-16 02:03:00,1236E-4,5C000000,-0724,0963,10849,028.4,045.4,0.388,729.3,01.19,0.508
2013-10-16 02:04:00,8343E-5,5C000000,-0724,0963,11034,028.4,045.4,0.388,729.2,01.19,0.508
2013-10-16 02:05:00,9785E-5,5C000000,-0724,0963,10824,028.4,045.4,0.388,729.2,01.19,0.508
2013-10-16 02:06:00,1672E-4,5C000000,-0724,0963,10831,028.4,045.4,0.387,729.2,01.19,0.508
2013-10-16 02:07:00,7793E-5,5C000000,-0724,0963,10852,028.4,045.4,0.388,729.2,01.19,0.508
2013-10-16 02:08:00,8177E-5,5C000000,-0724,0963,10875,028.4,045.4,0.388,729.0,01.19,0.508
2013-10-16 02:09:00,1411E-4,5C000000,-0724,0962,10874,028.4,045.4,0.388,729.1,01.19,0.508
2013-10-16 02:10:00,1067E-4,5C000000,-0724,0962,10975,028.4,045.4,0.388,729.1,01.19,0.508
2013-10-16 02:11:00,1210E-4,5C000000,-0724,0964,10989,028.4,045.4,0.387,729.0,01.19,0.508
2013-10-16 02:12:00,1058E-4,5C000000,-0724,0963,10965,028.4,045.4,0.388,729.0,01.19,0.508
2013-10-16 02:13:00,1430E-4,5C000000,-0724,0963,10986,028.4,045.4,0.388,729.0,01.19,0.508
2013-10-16 02:14:00,1238E-4,5C000000,-0724,0963,10894,028.4,045.4,0.388,729.0,01.19,0.508
2013-10-16 02:15:00,5998E-5,5C000000,-0724,0962,10912,028.4,045.4,0.388,728.9,01.19,0.508
2013-10-16 02:16:00,9240E-5,5C000000,-0724,0963,10805,028.4,045.4,0.387,729.0,01.19,0.508
2013-10-16 02:17:00,1537E-4,5C000000,-0724,0963,10663,028.4,045.4,0.388,728.9,01.19,0.508
2013-10-16 02:18:00,1826E-4,5C000000,-0724,0964,10997,028.4,045.4,0.388,729.0,01.19,0.508
2013-10-16 02:19:00,1895E-4,5C000000,-0724,0963,10747,028.4,045.4,0.387,729.0,01.19,0.508
2013-10-16 02:20:00,1172E-4,5C000000,-0724,0963,10914,028.4,045.4,0.388,728.8,01.19,0.508
2013-10-16 02:21:00,1141E-4,5C000000,-0724,0963,11043,028.4,045.3,0.387,728.9,01.19,0.508
2013-10-16 02:22:00,3793E-6,5C000000,-0724,0962,10855,028.4,045.4,0.388,728.9,01.19,0.508
2013-10-16 02:23:00,1090E-4,5C000000,-0724,0963,10852,028.4,045.4,0.387,728.9,01.19,0.508
2013-10-16 02:24:00,1660E-4,5C000000,-0724,0962,10688,028.4,045.3,0.388,728.8,01.19,0.508
2013-10-16 02:25:00,1881E-4,5C000000,-0724,0963,10966,028.4,045.3,0.388,728.9,01.19,0.508
2013-10-16 02:26:00,1571E-4,5C000000,-0724,0962,11004,028.4,045.4,0.388,728.8,01.19,0.508
2013-10-16 02:27:00,7005E-5,5C000000,-0724,0963,10821,028.4,045.4,0.388,728.8,01.19,0.508
2013-10-16 02:28:00,1703E-4,5C000000,-0724,0963,10720,028.4,045.4,0.387,728.7,01.19,0.508
2013-10-16 02:29:00,1061E-4,5C000000,-0724,0964,10964,028.4,045.4,0.388,728.8,01.19,0.508
2013-10-16 02:30:00,1481E-4,5C000000,-0724,0963,10939,028.4,045.4,0.387,728.8,01.19,0.508
2013-10-16 02:31:00,6385E-5,5C000000,-0724,0963,10842,028.3,045.4,0.388,728.9,01.19,0.508
2013-10-16 02:32:00,1201E-4,5C000000,-0724,0964,10940,028.4,045.3,0.388,728.8,01.19,0.508
2013-10-16 02:33:00,7407E-5,5C000000,-0724,0963,10836,028.4,045.4,0.387,728.8,01.19,0.508
2013-10-16 02:34:00,1353E-4,5C000000,-0724,0962,10900,028.4,045.4,0.388,728.7,01.19,0.508
2013-10-16 02:35:00,8156E-5,5C000000,-0724,0963,11006,028.4,045.3,0.387,728.7,01.19,0.508
2013-10-16 02:36:00,7967E-5,5C000000,-0724,0963,10897,028.4,045.4,0.388,728.6,01.19,0.508
2013-10-16 02:37:00,1125E-4,5C000000,-0724,0962,10947,028.3,045.4,0.388,728.6,01.19,0.508
2013-10-16 02:38:00,1259E-4,5C000000,-0724,0963,10796,028.3,045.3,0.388,728.7,01.19,0.508
2013-10-16 02:39:00,8098E-5,5C000000,-0724,0962,10716,028.4,045.3,0.388,728.6,01.19,0.508
2013-10-16 02:40:00,1688E-4,5C000000,-0724,0963,11053,028.4,045.3,0.387,728.5,01.19,0.508
2013-10-16 02:41:00,5149E-5,5C000000,-0724,0964,11045,028.4,045.4,0.388,728.5,01.19,0.508
2013-10-16 02:42:00,8930E-5,5C000000,-0724,0964,10982,028.3,045.4,0.388,728.5,01.19,0.508
2013-10-16 02:43:00,1314E-4,5C000000,-0724,0963,10906,028.3,045.4,0.388,728.6,01.19,0.508
2013-10-16 02:44:00,8199E-5,5C000000,-0724,0963,10875,028.3,045.4,0.388,728.5,01.19,0.508
2013-10-16 02:45:00,4375E-5,5C000000,-0724,0963,10860,028.3,045.4,0.387,728.4,01.19,0.508
2013-10-16 02:46:00,1033E-4,5C000000,-0724,0963,10837,028.3,045.4,0.388,728.5,01.19,0.508
2013-10-16 02:47:00,1935E-4,5C000000,-0724,0963,10926,028.3,045.4,0.387,728.3,01.19,0.508
2013-10-16 02:48:00,1266E-4,5C000000,-0724,0963,10732,028.3,045.4,0.388,728.4,01.19,0.508
2013-10-16 02:49:00,1585E-4,5C000000,-0724,0963,10857,028.4,045.4,0.387,728.4,01.19,0.508
2013-10-16 02:50:00,1226E-4,5C000000,-0724,0963,10935,028.3,045.4,0.388,728.3,01.19,0.508
2013-10-16 02:51:00,8442E-5,5C000000,-0724,0963,10887,028.3,045.4,0.388,728.4,01.19,0.508
2013-10-16 02:52:00,8430E-5,5C000000,-0724,0963,10845,028.3,045.3,0.388,728.3,01.19,0.508
2013-10-16 02:53:00,2178E-5,5C000000,-0724,0964,10972,028.3,045.3,0.388,728.3,01.19,0.508
2013-10-16 02:54:00,8410E-5,5C000000,-0724,0964,10879,028.3,045.3,0.387,728.3,01.19,0.508
2013-10-16 02:55:00,9924E-5,5C000000,-0724,0963,11039,028.3,045.4,0.388,728.3,01.19,0.508
2013-10-16 02:56:00,1200E-4,5C000000,-0724,0963,10877,028.3,045.4,0.387,728.3,01.19,0.508
2013-10-16 02:57:00,1529E-4,5C000000,-0724,0964,10858,028.3,045.3,0.388,728.1,01.19,0.508
2013-10-16 02:58:00,1961E-4,5C000000,-0724,0964,10839,028.3,045.3,0.387,728.2,01.19,0.508
2013-10-16 02:59:00,1571E-4,5C000000,-0724,0963,10966,028.3,045.4,0.388,728.1,01.19,0.508
2013-10-16 03:00:00,1047E-4,5C000000,-0724,0963,10908,028.4,045.4,0.387,728.0,01.19,0.508
2013-10-16 03:01:00,1743E-4,5C000000,-0724,0962,11039,028.3,045.4,0.388,728.1,01.19,0.508
2013-10-16 03:02:00,1344E-4,5C000000,-0724,0962,10827,028.3,045.3,0.387,728.2,01.19,0.508
2013-10-16 03:03:00,1343E-4,5C000000,-0724,0962,10799,028.3,045.3,0.388,728.1,01.19,0.508
2013-10-16 03:04:00,1398E-4,5C000000,-0724,0963,10832,028.3,045.4,0.388,728.1,01.19,0.508
2013-10-16 03:05:00,1018E-4,5C000000,-0724,0963,10956,028.3,045.4,0.387,728.0,01.19,0.508
2013-10-16 03:06:00,1216E-4,5C000000,-0724,0962,10951,028.3,045.4,0.388,728.1,01.19,0.508
2013-10-16 03:07:00,8836E-5,5C000000,-0724,0963,10889,028.4,045.4,0.387,728.1,01.19,0.508
2013-10-16 03:08:00,1079E-4,5C000000,-0724,0963,10949,028.3,045.4,0.388,728.1,01.19,0.508
2013-10-16 03:09:00,1220E-4,5C000000,-0724,0962,10840,028.3,045.4,0.387,728.2,01.19,0.508
2013-10-16 03:10:00,1938E-5,5C000000,-0724,0963,11004,028.3,045.3,0.388,728.1,01.19,0.508
2013-10-16 03:11:00,1568E-4,5C000000,-0724,0962,10993,028.4,045.4,0.388,728.2,01.19,0.508
2013-10-16 03:12:00,3984E-5,5C000000,-0724,0964,10813,028.4,045.4,0.387,728.1,01.19,0.508
2013-10-16 03:13:00,3873E-5,5C000000,-0724,0962,10848,028.4,045.4,0.388,728.0,01.19,0.508
2013-10-16 03:14:00,6353E-5,5C000000,-0724,0963,10925,028.4,045.4,0.387,728.2,01.19,0.508
2013-10-16 03:15:00,9556E-5,5C000000,-0724,0963,10959,028.4,045.4,0.388,728.1,01.19,0.508
2013-10-16 03:16:00,8329E-5,5C000000,-0724,0962,10849,028.4,045.4,0.388,728.1,01.19,0.508
2013-10-16 03:17:00,1438E-4,5C000000,-0724,0963,10905,028.4,045.4,0.387,728.1,01.19,0.508
2013-10-16 03:18:00,1259E-4,5C000000,-0724,0963,10914,028.4,045.4,0.388,728.1,01.19,0.508
2013-10-16 03:19:00,1095E-4,5C000000,-0724,0963,10809,028.4,045.4,0.387,728.1,01.19,0.508
2013-10-16 03:20:00,8479E-5,5C000000,-0724,0963,10980,028.4,045.4,0.388,728.1,01.19,0.508
2013-10-16 03:21:00,1382E-4,5C000000,-0724,0963,10840,028.4,045.4,0.387,727.8,01.19,0.508
2013-10-16 03:22:00,3492E-5,5C000000,-0724,0963,10905,028.4,045.4,0.387,728.2,01.19,0.508
2013-10-16 03:23:00,2652E-4,5C000000,-0724,0963,10886,028.4,045.4,0.388,728.1,01.19,0.508
2013-10-16 03:24:00,1177E-4,5C000000,-0724,0963,10987,028.4,045.4,0.387,728.1,01.19,0.508
2013-10-16 03:25:00,1091E-4,5C000000,-0724,0963,10977,028.4,045.4,0.388,728.0,01.19,0.508
2013-10-16 03:26:00,1053E-4,5C000000,-0724,0963,10859,028.4,045.4,0.387,728.1,01.19,0.508
2013-10-16 03:27:00,9226E-5,5C000000,-0724,0963,10779,028.4,045.4,0.387,728.1,01.19,0.508
2013-10-16 03:28:00,1148E-4,5C000000,-0724,0963,10998,028.5,045.4,0.388,728.1,01.19,0.508
2013-10-16 03:29:00,6263E-5,5C000000,-0724,0964,10806,028.4,045.4,0.387,728.1,01.19,0.508
2013-10-16 03:30:00,1525E-4,5C000000,-0724,0964,10866,028.4,045.4,0.387,728.0,01.19,0.508
2013-10-16 03:31:00,1092E-4,5C000000,-0724,0963,10846,028.5,045.4,0.388,727.9,01.19,0.508
2013-10-16 03:32:00,8032E-5,5C000000,-0724,0964,10900,028.4,045.4,0.387,727.8,01.19,0.508
2013-10-16 03:33:00,1751E-4,5C000000,-0724,0962,10932,028.5,045.4,0.388,727.9,01.19,0.508
2013-10-16 03:34:00,1535E-4,5C000000,-0724,0964,10782,028.5,045.4,0.387,728.2,01.19,0.508
2013-10-16 03:35:00,1007E-4,5C000000,-0724,0963,10938,028.5,045.3,0.387,728.1,01.19,0.508
2013-10-16 03:36:00,5346E-5,5C000000,-0724,0962,10825,028.5,045.4,0.388,728.0,01.19,0.508
2013-10-16 03:37:00,9247E-5,5C000000,-0724,0963,10862,028.5,045.4,0.387,728.0,01.19,0.508
2013-10-16 03:38:00,5589E-5,5C000000,-0724,0963,10821,028.5,045.4,0.387,728.0,01.19,0.508
2013-10-16 03:39:00,1195E-4,5C000000,-0724,0963,10959,028.5,045.4,0.387,728.0,01.19,0.508
2013-10-16 03:40:00,8597E-5,5C000000,-0724,0964,11004,028.5,045.4,0.387,728.1,01.19,0.508
2013-10-16 03:41:00,1146E-4,5C000000,-0724,0962,10729,028.5,045.4,0.388,728.0,01.19,0.508
2013-10-16 03:42:00,1396E-4,5C000000,-0724,0963,10924,028.5,045.4,0.387,728.0,01.19,0.508
2013-10-16 03:43:00,8846E-5,5C000000,-0724,0963,10944,028.5,045.4,0.387,727.9,01.19,0.508
2013-10-16 03:44:00,1070E-4,5C000000,-0724,0963,10824,028.5,045.4,0.387,728.1,01.19,0.508
2013-10-16 03:45:00,2058E-4,5C000000,-0724,0964,10974,028.5,045.4,0.387,728.1,01.19,0.508
2013-10-16 03:46:00,9574E-5,5C000000,-0724,0963,10931,028.5,045.4,0.388,728.1,01.19,0.508
2013-10-16 03:47:00,4657E-5,5C000000,-0724,0963,10815,028.5,045.4,0.387,728.1,01.19,0.508
2013-10-16 03:48:00,1398E-4,5C000000,-0724,0963,10857,028.5,045.4,0.387,728.1,01.19,0.508
2013-10-16 03:49:00,1594E-4,5C000000,-0724,0963,10860,028.5,045.4,0.387,728.0,01.19,0.508
2013-10-16 03:50:00,1383E-4,5C000000,-0724,0962,10755,028.5,045.4,0.387,728.1,01.19,0.508
2013-10-16 03:51:00,5025E-5,5C000000,-0724,0963,10951,028.5,045.4,0.387,727.9,01.19,0.508
2013-10-16 03:52:00,1908E-4,5C000000,-0724,0963,10917,028.5,045.4,0.387,727.9,01.19,0.508
2013-10-16 03:53:00,8989E-5,5C000000,-0724,0964,10718,028.5,045.3,0.387,727.9,01.19,0.508
2013-10-16 03:54:00,5523E-5,5C000000,-0724,0963,10868,028.5,045.4,0.387,728.0,01.19,0.508
2013-10-16 03:55:00,1399E-4,5C000000,-0724,0963,10954,028.5,045.4,0.387,728.1,01.19,0.508
2013-10-16 03:56:00,1056E-4,5C000000,-0724,0964,10848,028.6,045.4,0.387,728.1,01.19,0.508
2013-10-16 03:57:00,1737E-4,5C000000,-0724,0964,10916,028.6,045.4,0.387,728.0,01.19,0.508
2013-10-16 03:58:00,1363E-4,5C000000,-0724,0963,10952,028.6,045.3,0.387,728.0,01.19,0.508
2013-10-16 03:59:00,1391E-4,5C000000,-0724,0964,10868,028.6,045.4,0.387,728.0,01.19,0.508
2013-10-16 04:00:00,1053E-4,5C000000,-0724,0963,10785,028.6,045.4,0.387,727.9,01.19,0.508
2013-10-16 04:01:00,1373E-4,5C000000,-0724,0963,10956,028.6,045.4,0.387,727.9,01.19,0.508
2013-10-16 04:02:00,1147E-4,5C000000,-0724,0963,10768,028.6,045.4,0.387,728.0,01.19,0.508
2013-10-16 04:03:00,9096E-5,5C000000,-0724,0963,10926,028.6,045.4,0.387,728.1,01.19,0.508
2013-10-16 04:04:00,8185E-5,5C000000,-0724,0964,11012,028.6,045.4,0.387,727.7,01.19,0.508
2013-10-16 04:05:00,1506E-4,5C000000,-0724,0963,10671,028.6,045.4,0.387,727.8,01.19,0.508
2013-10-16 04:06:00,8582E-5,5C000000,-0724,0963,11031,028.6,045.4,0.387,728.0,01.19,0.508
2013-10-16 04:07:00,1428E-4,5C000000,-0724,0963,10744,028.6,045.4,0.387,727.7,01.19,0.508
2013-10-16 04:08:00,6494E-5,5C000000,-0724,0963,10879,028.6,045.4,0.387,727.7,01.19,0.508
2013-10-16 04:09:00,1312E-4,5C000000,-0724,0964,10763,028.6,045.4,0.387,727.8,01.19,0.508
2013-10-16 04:10:00,3774E-5,5C000000,-0724,0963,11048,028.6,045.3,0.387,727.8,01.19,0.508
2013-10-16 04:11:00,9584E-5,5C000000,-0724,0963,10788,028.6,045.3,0.387,727.7,01.19,0.508
2013-10-16 04:12:00,7597E-5,5C000000,-0724,0963,10906,028.6,045.4,0.387,727.8,01.19,0.508
2013-10-16 04:13:00,1367E-4,5C000000,-0724,0963,10968,028.6,045.3,0.387,727.6,01.19,0.508
2013-10-16 04:14:00,1555E-4,5C000000,-0724,0964,11000,028.6,045.3,0.387,727.8,01.19,0.508
2013-10-16 04:15:00,4134E-5,5C000000,-0724,0964,10785,028.6,045.4,0.387,728.0,01.19,0.508
2013-10-16 04:16:00,9370E-5,5C000000,-0724,0964,10866,028.6,045.4,0.387,727.8,01.19,0.508
2013-10-16 04:17:00,-8320E-6,5C000000,-0724,0963,10769,028.6,045.4,0.387,727.9,01.19,0.508
2013-10-16 04:18:00,4039E-5,5C000000,-0724,0964,10792,028.6,045.4,0.387,728.0,01.19,0.508
2013-10-16 04:19:00,1656E-4,5C000000,-0724,0964,10751,028.6,045.4,0.387,728.0,01.19,0.508
2013-10-16 04:20:00,1617E-4,5C000000,-0724,0963,10957,028.6,045.4,0.387,727.9,01.19,0.508